Location: *
(48.4851°S, 172.5098°W)
Time: 02:46:29
(UTC+00:00)

Daily predictions for brighter satellites

Satellite Brightness Start Highest point End
(mag) Time Altitude Azimuth Time Altitude Azimuth Time Altitude Azimuth
USA 215 3.5 04:10:55 10° E 04:17:21 56° SSE 04:23:48 10° SW
CZ-2C R/B 4.2 04:15:08 10° S 04:19:11 29° WSW 04:23:18 10° WNW
Cosmos 1633 4.2 04:16:35 10° NW 04:19:49 34° WSW 04:23:05 10° S
Lacrosse 5 2.9 04:17:48 10° WSW 04:22:26 32° S 04:27:03 10° ESE
CZ-4B R/B 3.4 04:19:12 10° SSE 04:24:09 89° ENE 04:28:58 10° NNW
ERBS 3.3 04:25:18 10° SW 04:28:03 26° SSE 04:30:47 10° E
Cosmos 2360 4.2 04:23:18 10° SSW 04:29:07 79° ESE 04:34:51 10° NNE
Cosmos 1605 Rocket 4.4 04:23:24 10° SSW 04:29:46 72° W 04:35:58 10° N
Cosmos 1153 Rocket 4.5 04:25:59 10° S 04:32:17 78° E 04:38:28 10° NNE
Cosmos 1340 Rocket 3.1 04:29:17 10° N 04:33:13 52° E 04:37:15 10° SSE
BREEZE M DEB (TANK) 4.0 04:37:28 10° N 04:38:37 13° NE 04:39:53 10° ENE
Meteor 1-31 Rocket 3.4 04:35:00 10° SSE 04:38:47 39° E 04:42:30 10° NNE
Cosmos 2151 3.7 04:37:10 10° NNE 04:41:07 35° E 04:45:07 10° SSE
Cosmos 1607 4.1 04:36:59 10° NW 04:43:18 87° SW 04:49:45 10° SE
PSLV R/B 4.2 04:39:13 10° S 04:43:25 55° WSW 04:47:32 10° NNW
USA 308 2.8 04:40:41 10° WSW 04:44:58 85° SSE 04:49:12 10° ENE
SL-16 R/B 3.3 04:42:10 10° S 04:46:44 23° SE 04:51:14 10° E
CZ-2C R/B 4.1 04:43:26 10° S 04:47:21 43° WSW 04:51:12 10° NW
Cosmos 1302 Rocket 4.0 04:45:40 10° NNW 04:50:56 89° ENE 04:56:17 10° SSE
COSMOS 2406 3.3 04:47:46 10° N 04:53:21 60° ENE 04:59:00 10° SE
COSMO-SKYMED 1 3.1 04:49:29 10° N 04:53:52 66° WNW 04:58:17 10° SSW
Landsat 5 3.9 04:51:54 10° NE 04:56:05 42° ESE 05:00:12 10° S
Cosmos 2173 Rocket 4.0 04:52:29 10° S 04:58:57 75° E 05:05:14 10° NNE
Cosmos 1782 2.8 04:56:05 10° S 05:00:06 61° ESE 05:04:02 10° NNE
Cosmos 1833 Rocket 2.8 04:55:30 10° NNW 05:01:11 80° WSW 05:06:56 10° SSE
Cosmos 2016 Rocket 4.1 04:55:30 10° S 05:01:39 53° ESE 05:07:48 10° NNE
SJ-12 4.5 04:58:39 10° S 05:02:49 62° WSW 05:06:56 10° NNW
Cosmos 1354 Rocket 4.4 04:58:19 10° SSW 05:03:19 40° ESE 05:08:17 10° NE
SeaSat 1 3.7 05:00:47 10° SSE 05:05:22 38° SW 05:09:55 10° WNW
USA 305 3.3 05:02:02 10° WSW 05:06:14 64° NW 05:10:24 10° NE
Cosmos 1486 Rocket 4.0 05:01:30 10° SSW 05:06:56 79° ESE 05:12:18 10° NNE
Cosmos 1992 Rocket 4.1 05:02:05 10° N 05:07:13 58° ENE 05:12:24 10° SSE
Cosmos 2233 Rocket 4.5 05:01:54 10° S 05:07:43 37° ESE 05:13:32 10° NE
Cosmos 2360 Rocket 3.6 05:04:13 10° S 05:08:07 18° SE 05:09:28 17° SE
Cosmos 1933 3.4 05:04:38 10° S 05:08:46 83° W 05:12:51 10° N
SMAP 4.0 05:06:12 14° SE 05:09:36 28° E 05:13:39 10° NNE
Cosmos 2278 3.8 05:03:59 10° SSW 05:09:39 57° ESE 05:15:13 10° NE
Cosmos 1939 Rocket 3.0 05:06:15 10° SSE 05:10:06 50° E 05:13:54 10° N
Cosmos 1727 Rocket 4.3 05:04:04 10° NNW 05:10:18 71° W 05:16:35 10° S
Lacrosse 5 rocket 2.4 05:07:26 10° SW 05:10:58 27° SSE 05:12:33 21° SE
DMSP B5D1-3 4.5 05:09:41 10° NNE 05:14:51 75° ESE 05:20:06 10° SSW
Cosmos 1864 Rocket 4.4 05:09:22 10° S 05:15:33 63° ESE 05:21:40 10° NNE
Cosmos 1151 Rocket 3.7 05:12:36 10° S 05:16:39 32° ESE 05:20:38 10° NE
Meteor PRIRODA 4.2 05:16:58 23° SE 05:18:41 35° E 05:22:07 10° NNE
Cosmos 1076 Rocket 3.8 05:15:10 10° NNW 05:19:33 72° W 05:23:58 10° S
Cosmos 1802 Rocket 4.0 05:14:41 10° S 05:21:14 84° E 05:27:43 10° N
BREEZE-M DEB (TANK) 4.4 05:13:28 10° WSW 05:21:29 37° NW 05:24:42 10° NNE
SL-08 R/B 4.5 05:15:14 10° S 05:21:30 63° ESE 05:27:36 10° NNE
Cosmos 1459 Rocket 4.1 05:16:09 10° SSW 05:22:23 79° W 05:28:38 10° N
Meteor 2-3 Rocket 3.9 05:18:24 10° NNW 05:24:02 79° WSW 05:29:50 10° S
USA 281 3.8 05:21:17 17° SE 05:25:51 36° ENE 05:31:51 10° N
ATLAS 2AS CENTAUR R/B 4.3 05:21:29 10° SW 05:27:57 39° WNW 05:34:46 10° N
Orbus 7S? 3.3 05:23:56 10° SW 05:27:59 42° SSE 05:28:30 38° SE
CZ-2D R/B 3.9 05:30:12 33° E 05:30:26 34° E 05:33:57 10° NNE
ARGOS 4.0 05:30:54 26° E 05:31:29 27° E 05:36:00 10° NNE
Cosmos 1812 2.8 05:28:11 10° SSW 05:32:07 80° W 05:35:58 10° N
CZ-4B R/B 3.0 05:34:48 37° ESE 05:35:42 46° E 05:39:28 10° N
CZ-2C R/B 4.2 05:31:39 10° S 05:36:09 39° WSW 05:40:44 10° NW
Cosmos 1503 Rocket 3.9 05:31:35 10° SSW 05:36:52 84° ESE 05:42:05 10° NNE
SJ 16-02 1.5 05:32:39 10° SSW 05:37:01 48° ESE 05:39:38 22° NE
Cosmos 1980 Rocket 2.8 05:34:54 10° SW 05:40:27 58° WNW 05:45:57 10° N
Meteor 2-6 Rocket 4.1 05:35:03 10° S 05:40:43 72° ESE 05:46:12 10° NNE
CZ-4C R/B 2.7 05:41:42 10° NNE 05:44:58 75° ESE 05:48:22 10° S
USA 306 4.4 05:44:19 10° WSW 05:48:10 35° NW 05:52:00 10° NNE
Lacrosse 4 Rocket 4.2 05:48:49 10° SW 05:49:48 11° SSW 05:50:47 10° SSW
H-2A R/B 3.8 05:52:26 20° SSE 05:52:26 20° SSE 05:54:08 10° S
Cosmos 2322 Rocket 2.6 05:44:44 10° SSW 05:50:12 42° SE 05:51:23 37° E
RESURS DK-1 3.6 05:47:22 10° SW 05:51:22 43° WNW 05:55:19 10° N
USA 307 4.3 05:49:34 10° WSW 05:53:29 37° NW 05:56:49 13° NNE
Cosmos 1900 4.2 05:48:38 10° SSW 05:53:30 62° SE 05:54:56 42° ENE
Cosmos 2082 Rocket 2.4 05:49:53 10° NW 05:55:31 71° WSW 05:59:35 20° SSE
H-2A R/B 1.8 05:55:24 19° SSE 05:59:04 76° ENE 06:04:00 10° N
USA 215 3.5 05:53:46 10° NE 06:00:16 70° NW 06:06:54 10° WSW
Cosmos 2333 Rocket 3.5 05:56:25 10° S 05:59:59 23° SSE 05:59:59 23° SSE
Cosmos 2123 Rocket 4.3 05:57:11 10° NNW 06:03:32 70° W 06:09:57 10° S
ERBS 2.9 06:00:29 10° WSW 06:03:04 52° W 06:03:04 52° W
Cosmos 2061 Rocket 4.4 05:58:05 10° SSW 06:04:28 67° W 06:10:43 10° N
Cosmos 1725 Rocket 4.5 05:58:36 10° SSW 06:04:50 63° W 06:11:02 10° N
Cosmos 1862 3.4 06:01:38 10° NNW 06:05:37 74° W 06:07:13 35° S
Cosmos 1766 Rocket 3.8 06:01:21 10° N 06:04:50 50° NE 06:04:50 50° NE
IRIDIUM 104 4.3 06:01:00 10° NNE 06:06:11 61° E 06:09:31 22° SSE
Lacrosse 5 1.9 06:01:09 10° SW 06:06:14 57° SSE 06:06:46 54° SE
Okean 3 Rocket 4.5 06:02:34 10° N 06:05:27 35° NNE 06:05:27 35° NNE
CZ-2C R/B 3.7 06:07:37 10° NNW 06:08:10 10° N 06:08:37 10° N
ADEOS 3.9 06:03:57 10° S 06:09:13 65° WSW 06:14:25 10° NNW
CORIOLIS 4.1 06:05:10 19° SSE 06:09:18 80° ENE 06:14:48 10° NNW
Cosmos 2219 Rocket 3.8 06:06:06 10° S 06:08:49 20° SSE 06:08:49 20° SSE
IRIDIUM 114 4.2 06:10:03 10° N 06:15:18 73° E 06:18:42 23° S
Cosmos 2084 3.6 06:11:28 10° NW 06:16:19 86° NE 06:16:40 76° ESE
IRIDIUM 103 4.2 06:19:10 10° N 06:24:26 87° E 06:27:49 23° S
Cosmos 1867 3.9 06:19:16 10° SSW 06:23:54 50° SSE 06:23:54 50° SSE
AQUARIUS 4.5 06:25:01 43° S 06:26:23 67° WSW 06:30:53 10° NNW
NOAA 6 4.1 06:29:17 42° S 06:31:06 78° WSW 06:36:15 10° NNW
SL-16 R/B 2.2 06:25:46 10° SSW 06:31:32 81° WNW 06:33:22 45° NNE
Cosmos 2237 4.1 06:32:21 10° SSW 06:37:59 81° SSE 06:37:59 81° SSE
SMAP 4.4 06:44:40 23° SSW 06:47:02 39° WSW 06:51:23 10° NW
Lacrosse 5 rocket 3.4 06:46:34 10° SW 06:48:05 22° SW 06:48:05 22° SW
Cosmos 2360 Rocket 2.9 06:47:26 10° SSW 06:51:15 43° SSW 06:51:15 43° SSW
Meteor 1-27 Rocket 4.2 06:58:49 10° SSW 07:04:18 57° W 07:04:58 53° WNW
USA 281 3.7 07:08:10 37° S 07:10:34 56° SW 07:17:00 10° NW
ARGOS 3.9 07:12:25 50° W 07:12:25 50° W 07:17:13 10° NW
SJ 16-02 3.8 07:11:56 10° SW 07:15:13 20° W 07:16:45 17° NW
Cosmos 2322 Rocket 3.6 07:28:57 10° SW 07:33:15 36° W 07:33:15 36° W
H-2A R/B 4.4 07:36:01 15° SSW 07:37:54 18° WSW 07:41:09 10° W
Cosmos 2082 Rocket 4.4 07:36:56 10° W 07:40:41 18° SW 07:41:27 17° SSW
Cosmos 2333 Rocket 4.3 07:40:15 10° SSW 07:42:01 21° SSW 07:42:01 21° SSW
Lacrosse 5 4.3 07:44:19 10° WSW 07:45:59 20° WSW 07:45:59 20° WSW
